| time (UTC) | temp F | wind direction | speed MPH | gust MPH | rain 1hr in | rain 24hr in | rain mn in | humidity % | barometer mb |
| 20260903163008 | 87 | 23 | 6.0 | 12.0 | 0.00 | 0.00 | 0.00 | 76 | 1017.6 |
| 20260903161513 | 86 | 51 | 3.0 | 11.0 | 0.00 | 0.00 | 0.00 | 81 | 1017.6 |
| 20260903160020 | 85 | 41 | 5.0 | 10.0 | 0.00 | 0.00 | 0.00 | 85 | 1017.9 |
| 20260903154527 | 84 | 87 | 2.0 | 8.0 | 0.00 | 0.01 | 0.00 | 86 | 1017.9 |
| 20260903153003 | 86 | 16 | 7.0 | 11.0 | 0.00 | 0.01 | 0.00 | 80 | 1017.7 |
| 20260903151538 | 85 | 92 | 4.0 | 8.0 | 0.00 | 0.01 | 0.00 | 81 | 1017.7 |
| 20260903150029 | 82 | 85 | 1.0 | 5.0 | 0.00 | 0.01 | 0.00 | 85 | 1017.7 |
| 20260903144526 | 83 | 35 | 6.0 | 14.0 | 0.00 | 0.01 | 0.00 | 84 | 1017.7 |
| 20260903143035 | 84 | 41 | 7.0 | 13.0 | 0.00 | 0.01 | 0.00 | 83 | 1017.6 |
| 20260903141514 | 84 | 81 | 4.0 | 9.0 | 0.00 | 0.01 | 0.00 | 84 | 1017.5 |
| 20260903140036 | 83 | 82 | 5.0 | 7.0 | 0.00 | 0.01 | 0.00 | 87 | 1017.6 |
| 20260903134525 | 82 | 67 | 2.0 | 7.0 | 0.00 | 0.01 | 0.00 | 90 | 1017.5 |
| 20260903131536 | 80 | 50 | 3.0 | 7.0 | 0.00 | 0.01 | 0.00 | 96 | 1017.5 |
| 20260903130020 | 79 | 37 | 3.0 | 5.0 | 0.00 | 0.01 | 0.00 | 97 | 1017.5 |
| 20260903124520 | 78 | 3 | 2.0 | 4.0 | 0.00 | 0.01 | 0.00 | 97 | 1017.5 |
| 20260903123030 | 77 | 30 | 3.0 | 5.0 | 0.00 | 0.01 | 0.00 | 97 | 1017.6 |
| 20260903121535 | 77 | 32 | 2.0 | 3.0 | 0.00 | 0.01 | 0.00 | 97 | 1017.6 |
| 20260903120015 | 76 | 19 | 1.0 | 2.0 | 0.00 | 0.01 | 0.00 | 97 | 1017.7 |
| 20260903114520 | 76 | 8 | 1.0 | 3.0 | 0.00 | 0.01 | 0.00 | 97 | 1017.3 |
| 20260903113027 | 76 | 4 | 2.0 | 3.0 | 0.00 | 0.01 | 0.00 | 97 | 1017.0 |
| 20260903111531 | 76 | 326 | 0.0 | 2.0 | 0.00 | 0.01 | 0.00 | 97 | 1016.7 |
| 20260903110009 | 76 | 1 | 1.0 | 1.0 | 0.00 | 0.01 | 0.00 | 97 | 1016.5 |
| 20260903104503 | 76 | 1 | 1.0 | 2.0 | 0.00 | 0.01 | 0.00 | 97 | 1016.3 |
| 20260903103003 | 76 | 1 | 0.0 | 2.0 | 0.00 | 0.01 | 0.00 | 97 | 1016.2 |
| 20260903101510 | 75 | 359 | 2.0 | 3.0 | 0.00 | 0.01 | 0.00 | 96 | 1016.0 |
| 20260903100009 | 76 | 359 | 1.0 | 4.0 | 0.00 | 0.01 | 0.00 | 97 | 1015.9 |
| 20260903094514 | 76 | 25 | 1.0 | 2.0 | 0.00 | 0.01 | 0.00 | 96 | 1016.0 |
| 20260903093003 | 76 | 6 | 2.0 | 3.0 | 0.00 | 0.01 | 0.00 | 96 | 1016.2 |
| 20260903091505 | 76 | 4 | 1.0 | 3.0 | 0.00 | 0.01 | 0.00 | 96 | 1016.0 |
| 20260903090010 | 76 | 356 | 2.0 | 3.0 | 0.00 | 0.01 | 0.00 | 96 | 1016.0 |
| 20260903084526 | 76 | 357 | 1.0 | 2.0 | 0.00 | 0.01 | 0.00 | 96 | 1015.9 |
| 20260903083024 | 76 | 9 | 2.0 | 2.0 | 0.00 | 0.01 | 0.00 | 96 | 1016.0 |
| 20260903081505 | 76 | 9 | 1.0 | 2.0 | 0.00 | 0.01 | 0.00 | 96 | 1015.9 |
| 20260903080011 | 76 | 18 | 1.0 | 3.0 | 0.00 | 0.01 | 0.00 | 96 | 1016.0 |
| 20260903074509 | 76 | 5 | 1.0 | 3.0 | 0.00 | 0.01 | 0.00 | 96 | 1016.2 |
| 20260903073022 | 77 | 13 | 1.0 | 2.0 | 0.00 | 0.01 | 0.00 | 96 | 1016.2 |
| 20260903071524 | 77 | 13 | 0.0 | 2.0 | 0.00 | 0.01 | 0.00 | 96 | 1016.3 |
| 20260903070005 | 77 | 13 | 1.0 | 3.0 | 0.00 | 0.01 | 0.00 | 96 | 1016.5 |
| 20260903064508 | 77 | 13 | 0.0 | 2.0 | 0.00 | 0.01 | 0.00 | 95 | 1016.6 |
| 20260903063019 | 77 | 13 | 1.0 | 2.0 | 0.00 | 0.01 | 0.00 | 95 | 1016.8 |
| 20260903061524 | 77 | 13 | 0.0 | 2.0 | 0.00 | 0.01 | 0.00 | 95 | 1016.8 |
| 20260903060031 | 77 | 13 | 0.0 | 2.0 | 0.00 | 0.01 | 0.00 | 95 | 1017.1 |
| 20260903054512 | 77 | 13 | 0.0 | 2.0 | 0.00 | 0.01 | 0.00 | 95 | 1017.2 |
| 20260903053016 | 77 | 56 | 0.0 | 2.0 | 0.00 | 0.01 | 0.00 | 95 | 1017.2 |
| 20260903051523 | 77 | 57 | 1.0 | 2.0 | 0.00 | 0.01 | 0.00 | 95 | 1017.2 |
| 20260903044517 | 77 | 30 | 1.0 | 2.0 | 0.00 | 0.01 | 0.00 | 95 | 1017.3 |
| 20260903043004 | 77 | 68 | 0.0 | 2.0 | 0.00 | 0.01 | 0.00 | 95 | 1017.4 |
| 20260903041510 | 77 | 68 | 1.0 | 2.0 | 0.00 | 0.01 | 0.00 | 95 | 1017.4 |
| 20260903040004 | 77 | 68 | 0.0 | 1.0 | 0.00 | 0.01 | 0.00 | 95 | 1017.4 |
| 20260903034506 | 77 | 68 | 1.0 | 2.0 | 0.00 | 0.01 | 0.01 | 94 | 1017.6 |
| 20260903033008 | 77 | 68 | 1.0 | 1.0 | 0.00 | 0.01 | 0.01 | 94 | 1017.5 |
| 20260903031509 | 78 | 68 | 0.0 | 2.0 | 0.00 | 0.01 | 0.01 | 93 | 1017.7 |
| 20260903030004 | 78 | 68 | 0.0 | 2.0 | 0.00 | 0.01 | 0.01 | 93 | 1017.6 |
| 20260903024506 | 78 | 68 | 0.0 | 2.0 | 0.00 | 0.01 | 0.01 | 93 | 1017.8 |
| 20260903023012 | 78 | 68 | 0.0 | 0.0 | 0.00 | 0.01 | 0.01 | 93 | 1017.7 |
| 20260903021510 | 79 | 68 | 0.0 | 0.0 | 0.00 | 0.01 | 0.01 | 92 | 1017.9 |
| 20260903020003 | 79 | 68 | 0.0 | 1.0 | 0.00 | 0.01 | 0.01 | 91 | 1017.8 |
| 20260903014505 | 79 | 68 | 0.0 | 0.0 | 0.00 | 0.01 | 0.01 | 91 | 1017.8 |
| 20260903013007 | 80 | 68 | 0.0 | 0.0 | 0.00 | 0.01 | 0.01 | 90 | 1017.6 |
| 20260903011513 | 80 | 68 | 0.0 | 2.0 | 0.00 | 0.01 | 0.01 | 90 | 1017.6 |
| 20260903010015 | 80 | 68 | 0.0 | 2.0 | 0.00 | 0.01 | 0.01 | 88 | 1017.4 |
| 20260903004504 | 80 | 114 | 0.0 | 2.0 | 0.00 | 0.01 | 0.01 | 88 | 1017.4 |
| 20260903003008 | 81 | 122 | 0.0 | 2.0 | 0.00 | 0.01 | 0.01 | 88 | 1017.1 |
| 20260903001513 | 81 | 35 | 1.0 | 2.0 | 0.00 | 0.01 | 0.01 | 87 | 1017.1 |
| 20260903000022 | 81 | 44 | 0.0 | 3.0 | 0.00 | 0.01 | 0.01 | 86 | 1017.3 |
| 20260902234516 | 82 | 82 | 1.0 | 2.0 | 0.00 | 0.01 | 0.01 | 85 | 1017.4 |
| 20260902233004 | 82 | 52 | 2.0 | 4.0 | 0.00 | 0.01 | 0.01 | 84 | 1017.1 |
| 20260902231521 | 83 | 56 | 2.0 | 4.0 | 0.00 | 0.01 | 0.01 | 84 | 1017.2 |
| 20260902230023 | 83 | 42 | 1.0 | 6.0 | 0.00 | 0.01 | 0.01 | 83 | 1017.2 |
| 20260902224520 | 84 | 25 | 3.0 | 8.0 | 0.00 | 0.01 | 0.01 | 80 | 1017.2 |
| 20260902223023 | 85 | 67 | 5.0 | 12.0 | 0.00 | 0.01 | 0.01 | 78 | 1017.3 |
| 20260902221508 | 85 | 85 | 4.0 | 11.0 | 0.00 | 0.01 | 0.01 | 78 | 1017.3 |
| 20260902220015 | 87 | 72 | 7.0 | 12.0 | 0.00 | 0.01 | 0.01 | 75 | 1017.1 |
| 20260902214523 | 87 | 62 | 6.0 | 10.0 | 0.00 | 0.01 | 0.01 | 75 | 1017.1 |
| 20260902213023 | 87 | 81 | 6.0 | 13.0 | 0.00 | 0.01 | 0.01 | 74 | 1017.1 |
| 20260902211527 | 87 | 32 | 6.0 | 13.0 | 0.00 | 0.01 | 0.01 | 76 | 1017.3 |
| 20260902210026 | 87 | 53 | 9.0 | 16.0 | 0.00 | 0.01 | 0.01 | 76 | 1017.1 |
| 20260902204529 | 86 | 91 | 5.0 | 10.0 | 0.00 | 0.01 | 0.01 | 80 | 1017.1 |
| 20260902203024 | 83 | 26 | 0.0 | 4.0 | 0.00 | 0.01 | 0.01 | 84 | 1017.4 |
| 20260902201527 | 84 | 94 | 1.0 | 16.0 | 0.00 | 0.01 | 0.01 | 78 | 1017.7 |
| 20260902200030 | 88 | 86 | 5.0 | 10.0 | 0.00 | 0.01 | 0.01 | 73 | 1017.4 |
| 20260902194518 | 89 | 82 | 5.0 | 11.0 | 0.00 | 0.01 | 0.01 | 69 | 1017.3 |
| 20260902193026 | 88 | 54 | 6.0 | 10.0 | 0.00 | 0.01 | 0.01 | 72 | 1017.5 |
| 20260902191506 | 88 | 359 | 3.0 | 9.0 | 0.00 | 0.01 | 0.01 | 71 | 1017.5 |
| 20260902190048 | 89 | 29 | 7.0 | 12.0 | 0.00 | 0.05 | 0.01 | 71 | 1017.5 |
| 20260902184523 | 89 | 37 | 7.0 | 11.0 | 0.00 | 0.07 | 0.01 | 71 | 1017.6 |
| 20260902183020 | 89 | 88 | 7.0 | 14.0 | 0.00 | 0.07 | 0.01 | 72 | 1017.7 |
| 20260902181527 | 88 | 110 | 4.0 | 10.0 | 0.00 | 0.07 | 0.01 | 73 | 1017.8 |
| 20260902180014 | 88 | 93 | 2.0 | 9.0 | 0.00 | 0.13 | 0.01 | 76 | 1018.0 |
| 20260902174533 | 87 | 88 | 3.0 | 8.0 | 0.00 | 0.27 | 0.01 | 76 | 1018.2 |
| 20260902173016 | 86 | 50 | 1.0 | 6.0 | 0.00 | 0.27 | 0.01 | 83 | 1018.3 |
| 20260902171504 | 85 | 324 | 2.0 | 8.0 | 0.00 | 0.27 | 0.01 | 84 | 1018.5 |
| 20260902170026 | 84 | 1 | 4.0 | 11.0 | 0.01 | 0.27 | 0.01 | 82 | 1018.8 |
| 20260902164512 | 86 | 359 | 5.0 | 8.0 | 0.01 | 0.27 | 0.01 | 82 | 1018.9 |